KB9LNR Weather Reports


Display with metric or nautical units.
time (UTC)temp
F
wind
direction
speed
MPH
gust
MPH
rain 1hr
in
rain 24hr
in
rain mn
in
humidity
%
barometer
mb
20260504044604 59 0 0.0 0.0 0.00 0.00 0.00 68 1007.1
20260504043059 59 0 0.0 0.0 0.00 0.00 0.00 67 1007.3
20260504041556 60 0 0.0 2.0 0.00 0.00 0.00 67 1007.3
20260504040057 60 0 0.0 1.0 0.00 0.00 0.00 67 1007.4
20260504034614 60 0 0.0 2.0 0.00 0.00 0.00 65 1007.5
20260504033057 61 0 0.0 1.0 0.00 0.00 0.00 66 1007.6
20260504031559 61 0 0.0 0.0 0.00 0.00 0.00 65 1007.6
20260504030058 61 0 0.0 5.0 0.00 0.00 0.00 64 1007.6
20260504024558 61 0 0.0 2.0 0.00 0.00 0.00 64 1007.5
20260504023100 61 178 0.0 3.0 0.00 0.00 0.00 63 1007.5
20260504021559 62 0 0.0 2.0 0.00 0.00 0.00 63 1007.4
20260504020100 62 202 0.0 5.0 0.00 0.00 0.00 62 1007.5
20260504014619 63 186 0.0 2.0 0.00 0.00 0.00 60 1007.5
20260504013104 63 204 0.0 4.0 0.00 0.00 0.00 60 1007.4
20260504011605 63 0 0.0 4.0 0.00 0.00 0.00 60 1007.2
20260504010101 64 237 0.0 5.0 0.00 0.00 0.00 59 1007.1
20260504004604 65 0 0.0 5.0 0.00 0.00 0.00 58 1007.1
20260504003107 65 0 0.0 5.0 0.00 0.00 0.00 57 1007.1
20260504001613 66 0 0.0 4.0 0.00 0.00 0.00 58 1007.1
20260504000059 66 0 1.0 6.0 0.00 0.00 0.00 56 1007.2
20260503234557 67 215 1.0 7.0 0.00 0.00 0.00 54 1007.3
20260503233102 67 238 1.0 8.0 0.00 0.00 0.00 56 1007.3
20260503231558 67 217 2.0 7.0 0.00 0.00 0.00 54 1007.2
20260503230100 67 209 2.0 8.0 0.00 0.00 0.00 53 1007.2
20260503224600 67 205 3.0 13.0 0.00 0.00 0.00 51 1007.4
20260503223100 67 215 2.0 14.0 0.00 0.00 0.00 50 1007.4
20260503221559 67 199 3.0 9.0 0.00 0.00 0.00 51 1007.6
20260503214559 66 256 4.0 14.0 0.00 0.00 0.00 50 1007.7
20260503213111 67 277 3.0 11.0 0.00 0.00 0.00 50 1007.8
20260503211600 66 260 4.0 13.0 0.00 0.00 0.00 50 1007.9
20260503210105 66 234 3.0 14.0 0.00 0.00 0.00 48 1007.9
20260503204559 66 229 6.0 16.0 0.00 0.00 0.00 47 1008.0
20260503203104 67 244 4.0 11.0 0.00 0.00 0.00 46 1008.1
20260503201558 66 236 5.0 20.0 0.00 0.00 0.00 46 1008.5
20260503200104 67 173 3.0 14.0 0.00 0.00 0.00 45 1008.5
20260503194600 68 196 4.0 16.0 0.00 0.00 0.00 45 1008.7
20260503193111 68 346 4.0 22.0 0.00 0.00 0.00 45 1008.7
20260503191607 67 176 4.0 18.0 0.00 0.00 0.00 43 1008.9
20260503190059 67 211 5.0 16.0 0.00 0.00 0.00 43 1008.9
20260503184610 64 13 5.0 18.0 0.00 0.00 0.00 46 1009.2
20260503183111 63 246 3.0 13.0 0.00 0.00 0.00 50 1009.6
20260503181610 63 200 6.0 16.0 0.00 0.00 0.00 46 1009.7
20260503180100 64 277 5.0 16.0 0.00 0.00 0.00 48 1009.8
20260503174600 62 153 7.0 17.0 0.00 0.00 0.00 50 1010.4
20260503173102 61 150 3.0 12.0 0.00 0.00 0.00 51 1011.0
20260503171601 60 211 2.0 12.0 0.00 0.00 0.00 54 1011.3
20260503090105 45 0 0.0 3.0 0.00 0.00 0.00 70 1015.7
20260503081629 45 235 0.0 5.0 0.00 0.00 0.00 65 1015.7
20260503080117 45 0 0.0 4.0 0.00 0.00 0.00 65 1015.7
20260503071557 45 0 0.0 3.0 0.00 0.00 0.00 65 1015.9
20260503070106 45 0 0.0 2.0 0.00 0.00 0.00 63 1015.9